Home > Time Zones > World Clock > Weather > Japan > Tokyo > Past weeks

Flag for Japan Weather past 2 weeks in Tokyo, Japan

Now
59 °F

Light rain. Overcast.


Feels Like: 58 °F
Forecast: 53 / 62 °F
Wind: 7 mph from South

Location: Tokyo


UV Index: 5 (Moderate)

Visibility: 5 mi


Pressure: 29.91 "Hg

Humidity: 90%

Dew point: 56 °F

Location of TokyoLocation

Historic Weather in Tokyo

°F

Tokyo temperature yesterday

Maximum temperature yesterday: 56 °F (at 1:00 PM)
Minimum temperature yesterday: 45 °F (at 6:00 AM)
Average temperature yesterday: 52 °F

Past Weeks' High & Low Weather Summary

 TemperatureHumidityPressure
High73 °F (Apr 16, 2:00 PM)93% (Apr 21, 7:00 AM)30.27 "Hg (Apr 21, 7:00 AM)
Low44 °F (Apr 7, 12:00 AM)10% (Apr 12, 1:00 PM)29.66 "Hg (Apr 10, 3:00 PM)
Average57 °F51%29.99 "Hg
* Reported Apr 6 8:00 PM — Apr 21 8:00 PM, Tokyo, Weather by CustomWeather, © 2014

Note: Actual official high and low records may vary slightly from our data, if they occured in-between our weather recording intervals... More about our weather records

Advertising

Historic Weather Conditions — Data for Previous 24 hours

 ConditionsComfort  
Time TempWeatherWind HumidityBarometerVisibility
8:00 PM
Apr 21
59 °FCool.5 mph89%29.91 "HgN/A
7:00 PM58 °FCool.6 mph90%29.93 "HgN/A
6:00 PM58 °FLight rain. Overcast.8 mph89%29.93 "Hg5 mi
5:00 PM58 °FCool.6 mph90%29.94 "HgN/A
4:00 PM60 °FCool.10 mph83%29.94 "HgN/A
3:00 PM61 °FLight rain. Overcast.13 mph75%29.94 "Hg6 mi
2:00 PM62 °FCool.16 mph71%29.98 "HgN/A
1:00 PM63 °FMild.14 mph69%29.99 "HgN/A
12:00 PM62 °FFog.8 mph79%30.02 "Hg5 mi
11:00 AM57 °FCool.5 mph88%30.06 "HgN/A
10:00 AM55 °FCool.7 mph91%30.08 "HgN/A
9:00 AM54 °FLight rain. Low clouds.2 mph91%30.10 "Hg2 mi
8:00 AM51 °FCool.1 mph93%30.10 "HgN/A
7:00 AM51 °FCool.2 mph93%30.13 "HgN/A
6:00 AM51 °FLight rain. Low clouds.2 mph91%30.14 "Hg1 mi
5:00 AM50 °FCool.5 mph90%30.14 "HgN/A
4:00 AM51 °FCool.5 mph90%30.13 "HgN/A
3:00 AM51 °FLight rain. Overcast.3 mph90%30.14 "Hg2 mi
2:00 AM51 °FCool.5 mph89%30.16 "HgN/A
1:00 AM51 °FCool.3 mph87%30.16 "HgN/A
12:00 AM54 °FCool.3 mph83%30.19 "HgN/A
11:00 PM
Apr 20
55 °FCool.3 mph73%30.18 "HgN/A
10:00 PM55 °FCool.3 mph67%30.18 "HgN/A
Weather by CustomWeather, © 2014

See weather overview